Flag for Seychelles Weather past 2 weeks in Victoria, Seychelles

Now
84 °F

Passing clouds.


Feels Like: 92 °F
Forecast: 75 / 80 °F
Wind: 12 mph from Northwest

Location: National Airport

Current Time: Dec 25, 2014 at 5:48:17 PM

Latest Report: Dec 25, 2014 at 5:00 PM


Visibility: N/A

Pressure: 29.83 "Hg

Humidity: 74%

Dew point: 75 °F

Location of VictoriaLocation

Historic Weather in Victoria — Graph

°F

Victoria temperature yesterday

Maximum temperature yesterday: 90 °F (at 1:00 PM)
Minimum temperature yesterday: 77 °F (at 12:00 AM)
Average temperature yesterday: 82 °F

Past Weeks' High & Low Weather Summary

 TemperatureHumidityPressure
High90 °F (Dec 24, 1:00 PM)100% (Dec 12, 2:00 PM)29.95 "Hg (Dec 12, 2:00 PM)
Low75 °F (Dec 12, 2:00 PM)59% (Dec 24, 1:00 PM)29.77 "Hg (Dec 22, 3:00 PM)
Average81 °F82%29.86 "Hg
* Reported Dec 10 4:00 PM — Dec 25 4:00 PM, Victoria, Weather by CustomWeather, © 2014

Note: Actual official high and low records may vary slightly from our data, if they occured in-between our weather recording intervals... More about our weather records

Advertising

Victoria weather history for previous 24 hours

 ConditionsComfort  
Time TempWeatherWind HumidityBarometerVisibility
4:00 PM
Dec 25
86 °FPartly sunny.16 mph75%29.83 "HgN/A
3:00 PM86 °FPartly sunny.14 mph75%29.83 "HgN/A
2:00 PM86 °FPartly sunny.14 mph70%29.83 "HgN/A
1:00 PM84 °FPartly sunny.13 mph79%29.86 "HgN/A
12:00 PM82 °FPartly sunny.3 mph84%29.89 "HgN/A
11:00 AM86 °FScattered showers. Partly sunny.16 mph75%29.92 "HgN/A
10:00 AM82 °FPartly sunny.10 mph89%29.92 "HgN/A
9:00 AM84 °FPartly sunny.8 mph79%29.92 "HgN/A
8:00 AM82 °FPartly sunny.No wind84%29.92 "HgN/A
7:00 AM79 °FScattered clouds.No wind89%29.89 "HgN/A
6:00 AM77 °FPassing clouds.No wind94%29.86 "HgN/A
5:00 AM77 °FPassing clouds.3 mph94%29.86 "HgN/A
4:00 AM77 °FPassing clouds.2 mph94%29.86 "HgN/A
3:00 AM77 °FPassing clouds.2 mph94%29.86 "HgN/A
2:00 AM79 °FSprinkles. Passing clouds.6 mph89%29.86 "HgN/A
1:00 AM79 °FPassing clouds.No wind89%29.89 "HgN/A
12:00 AM79 °FPassing clouds.No wind89%29.92 "HgN/A
11:00 PM
Dec 24
79 °FPassing clouds.No wind89%29.92 "HgN/A
10:00 PM79 °FPassing clouds.3 mph89%29.92 "HgN/A
9:00 PM82 °FPassing clouds.10 mph79%29.92 "HgN/A
8:00 PM81 °FPassing clouds.5 mph84%29.92 "HgN/A
7:00 PM82 °FPassing clouds.5 mph79%29.89 "HgN/A
6:00 PM84 °FScattered clouds.2 mph74%29.89 "HgN/A
5:00 PM86 °FScattered clouds.6 mph66%29.86 "HgN/A
Weather by CustomWeather, © 2014

See weather overviewHow to use our weather pages